Tracking 19564 objects as of 19-Mar-2019
HD Live streaming from Space Station
objects crossing your sky now

GALILEO-FM4

Track GALILEO-FM4 now!
GALILEO-FM4 is classified as:


NORAD ID: 38858
Int'l Code: 2012-055B
Perigee: 23,223.0 km
Apogee: 23,235.8 km
Inclination: 54.9 °
Period: 844.7 minutes
Semi major axis: 29600 km
RCS: 13.2202 m2 (large)
Launch date: October 12, 2012
Source: European Space Agency (ESA)
Launch site: FRENCH GUIANA (FRGUI)

GALILEO-FM4 is one of the first four Galileo satellites which are part of system's in-orbit validation, or IOV, phase.
aabbcc
Your satellite tracking list
Your tracking list is empty




NASA's NSSDC Master Catalog

Two Line Element Set (TLE):
1 38858U 12055B   19075.22012647 -.00000007 +00000-0 +00000-0 0  9999
2 38858 054.9242 174.4319 0002166 257.4476 102.5329 01.70473550039982
Source of the keplerian elements: AFSPC